Seminole, TX

3:42 PM CST on December 16, 2017 (GMT -0600)
Seminole

Weather History for KGNC - January, 2014

Change the Weather History Date:

Thursday, January 23, 2014

  Actual Average (KHOB) Record (KHOB)
Temperature  
Mean Temperature 26 °F -  
Max Temperature 36 °F 57 °F 78 °F (1950)
Min Temperature 16 °F 30 °F 14 °F (1955)
Degree Days  
Heating Degree Days 39    
Moisture  
Dew Point 7 °F    
Average Humidity 44    
Maximum Humidity 66    
Minimum Humidity 19    
Precipitation  
Precipitation 0.00 in - - ()
Sea Level Pressure  
Sea Level Pressure 30.43 in    
Wind  
Wind Speed 15 mph (NE)    
Max Wind Speed 25 mph    
Max Gust Speed 33 mph    
Visibility 10 miles    
Events      
Averages and records for this station are not official NWS values.
T = Trace of Precipitation, MM = Missing Value Source: NWS Daily Summary

Daily Weather History Graph

Daily Weather History Graph

Search for Another Location

Airport or City:

Trip Planner

Search our weather history database for the weather conditions in past years. The results will help you decide how hot, cold, wet, or windy it might be!

Date:

Astronomy

Jan. 23, 2014 Rise Set
Actual Time 7:50 AM CST 6:15 PM CST
Civil Twilight 7:24 AM CST 6:41 PM CST
Nautical Twilight 6:54 AM CST 7:11 PM CST
Astronomical Twilight 6:24 AM CST 7:40 PM CST
Moon 12:24 AM CST (1/23) 11:52 AM CST (1/23)
Length of Visible Light 11h 17m
Length of Day
10h 24m
Waning Gibbous, 55% of the Moon is Illuminated
Jan 23
Waning Gibbous
Jan 23
Last Quarter
Jan 30
New
Feb 6
First Quarter
Feb 14
Full

Hourly Weather History & Observations

Time (CST) Temp. Windchill Dew Point Humidity Pressure Visibility Wind Dir Wind Speed Gust Speed Precip Events Conditions
12:15 AM 36.5 °F 29.2 °F 20.8 °F 53% 30.11 in 10.0 mi ENE 10.4 mph - N/A   Clear
12:35 AM 36.5 °F 28.7 °F 21.0 °F 54% 30.11 in 10.0 mi NE 11.5 mph 18.4 mph N/A   Clear
12:55 AM 36.3 °F 28.0 °F 21.0 °F 54% 30.11 in 10.0 mi ENE 12.7 mph - N/A   Clear
1:15 AM 36.5 °F 27.4 °F 20.7 °F 53% 30.12 in 10.0 mi ENE 15.0 mph - N/A   Clear
1:35 AM 36.5 °F 26.7 °F 20.3 °F 52% 30.13 in 10.0 mi ENE 17.3 mph 20.7 mph N/A   Clear
1:55 AM 35.6 °F 25.9 °F 20.3 °F 54% 30.14 in 10.0 mi ENE 16.1 mph 20.7 mph N/A   Clear
2:15 AM 34.9 °F 25.3 °F 20.1 °F 55% 30.14 in 10.0 mi ENE 15.0 mph 21.9 mph N/A   Clear
2:35 AM 34.5 °F 24.8 °F 19.9 °F 55% 30.16 in 10.0 mi ENE 15.0 mph - N/A   Clear
2:55 AM 33.4 °F 23.9 °F 20.1 °F 58% 30.16 in 10.0 mi ENE 13.8 mph - N/A   Clear
3:15 AM 32.9 °F 24.1 °F 20.3 °F 60% 30.16 in 10.0 mi ENE 11.5 mph 17.3 mph N/A   Clear
3:35 AM 32.4 °F 22.1 °F 20.3 °F 61% 30.16 in 10.0 mi ENE 15.0 mph - N/A   Clear
3:55 AM 32.5 °F 21.9 °F 20.8 °F 62% 30.18 in 10.0 mi ENE 16.1 mph 20.7 mph N/A   Clear
4:15 AM 32.4 °F 21.7 °F 21.2 °F 63% 30.18 in 10.0 mi ENE 16.1 mph 23.0 mph N/A   Clear
4:35 AM 32.2 °F 21.1 °F 21.6 °F 65% 30.19 in 10.0 mi ENE 17.3 mph 21.9 mph N/A   Clear
4:55 AM 32.0 °F 20.1 °F 21.7 °F 66% 30.20 in 10.0 mi ENE 19.6 mph 23.0 mph N/A   Clear
5:15 AM 32.0 °F 21.2 °F 21.7 °F 66% 30.22 in 10.0 mi NE 16.1 mph 19.6 mph N/A   Clear
5:35 AM 32.0 °F 20.8 °F 21.2 °F 64% 30.23 in 10.0 mi ENE 17.3 mph 24.2 mph N/A   Clear
5:55 AM 31.6 °F 19.7 °F 20.8 °F 64% 30.24 in 10.0 mi NE 19.6 mph 25.3 mph N/A   Clear
6:15 AM 31.5 °F 18.8 °F 20.3 °F 63% 30.25 in 10.0 mi ENE 21.9 mph 26.5 mph N/A   Clear
6:35 AM 31.1 °F 18.9 °F 19.8 °F 63% 30.28 in 10.0 mi NE 19.6 mph 24.2 mph N/A   Clear
6:55 AM 30.7 °F 19.2 °F 18.7 °F 61% 30.29 in 10.0 mi ENE 17.3 mph - N/A   Clear
7:15 AM 29.8 °F 18.4 °F 18.3 °F 62% 30.31 in 10.0 mi ENE 16.1 mph 21.9 mph N/A   Clear
7:35 AM 28.9 °F 16.5 °F 17.6 °F 63% 30.33 in 10.0 mi ENE 18.4 mph 25.3 mph N/A   Clear
7:55 AM 28.4 °F 17.0 °F 17.6 °F 64% 30.34 in 10.0 mi ENE 15.0 mph - N/A   Clear
8:15 AM 28.2 °F 14.5 °F 15.6 °F 59% 30.36 in 7.0 mi ENE 21.9 mph 33.4 mph N/A   Clear
8:35 AM 27.9 °F 16.3 °F 15.8 °F 61% 30.38 in 10.0 mi ENE 15.0 mph 20.7 mph N/A   Clear
8:55 AM 28.4 °F 15.1 °F 16.3 °F 61% 30.39 in 10.0 mi ENE 20.7 mph 28.8 mph N/A   Clear
9:15 AM 29.3 °F 17.3 °F 17.1 °F 60% 30.41 in 10.0 mi NE 17.3 mph 23.0 mph N/A   Clear
9:35 AM 28.4 °F 15.4 °F 16.7 °F 62% 30.43 in 10.0 mi ENE 19.6 mph 27.6 mph N/A   Clear
9:55 AM 27.9 °F 14.4 °F 17.1 °F 64% 30.45 in 10.0 mi NE 20.7 mph 25.3 mph N/A   Clear
10:15 AM 27.7 °F 15.6 °F 16.5 °F 63% 30.46 in 10.0 mi NE 16.1 mph 25.3 mph N/A   Clear
10:35 AM 28.9 °F 14.8 °F 15.4 °F 57% 30.48 in 10.0 mi NE 24.2 mph 28.8 mph N/A   Clear
10:55 AM 30.2 °F 18.9 °F 15.4 °F 54% 30.49 in 10.0 mi NE 16.1 mph - N/A   Clear
11:15 AM 30.6 °F 17.9 °F 14.4 °F 51% 30.50 in 10.0 mi ENE 20.7 mph 26.5 mph N/A   Clear
11:35 AM 30.7 °F 16.9 °F 14.0 °F 50% 30.50 in 10.0 mi ENE 25.3 mph 31.1 mph N/A   Clear
11:55 AM 30.9 °F 19.1 °F 13.8 °F 49% 30.50 in 10.0 mi NE 18.4 mph 26.5 mph N/A   Clear
12:15 PM 31.6 °F 20.0 °F 13.3 °F 47% 30.51 in 10.0 mi NE 18.4 mph 26.5 mph N/A   Clear
12:35 PM 31.1 °F 18.0 °F 12.7 °F 47% 30.50 in 10.0 mi ENE 23.0 mph 28.8 mph N/A   Clear
12:55 PM 31.8 °F 19.0 °F 10.8 °F 42% 30.50 in 10.0 mi ENE 23.0 mph 31.1 mph N/A   Clear
1:15 PM 31.6 °F 18.7 °F 7.0 °F 35% 30.50 in 10.0 mi NE 23.0 mph 31.1 mph N/A   Clear
1:35 PM 30.9 °F 17.8 °F 5.5 °F 34% 30.50 in 10.0 mi NE 23.0 mph 27.6 mph N/A   Clear
1:55 PM 28.6 °F 15.6 °F 2.1 °F 32% 30.51 in 7.0 mi NE 19.6 mph 26.5 mph N/A   Clear
2:15 PM 28.6 °F 16.0 °F -3.1 °F 25% 30.52 in 10.0 mi NE 18.4 mph 28.8 mph N/A   Clear
2:35 PM 28.9 °F 15.8 °F -0.2 °F 29% 30.52 in 10.0 mi ENE 20.7 mph 28.8 mph N/A   Clear
2:55 PM 28.6 °F 16.0 °F -2.2 °F 27% 30.53 in 10.0 mi NE 18.4 mph 29.9 mph N/A   Clear
3:15 PM 28.0 °F 15.7 °F -6.2 °F 23% 30.53 in 10.0 mi NNE 17.3 mph 26.5 mph N/A   Clear
3:35 PM 27.5 °F 14.2 °F -8.3 °F 21% 30.54 in 10.0 mi NE 19.6 mph 27.6 mph N/A   Clear
3:55 PM 26.6 °F 13.4 °F -5.8 °F 24% 30.54 in 10.0 mi NNE 18.4 mph 26.5 mph N/A   Scattered Clouds
4:15 PM 26.4 °F 14.0 °F -9.9 °F 20% 30.55 in 10.0 mi NNE 16.1 mph 25.3 mph N/A   Scattered Clouds
4:35 PM 25.9 °F 12.9 °F -8.3 °F 22% 30.55 in 10.0 mi NE 17.3 mph 25.3 mph N/A   Mostly Cloudy
4:55 PM 24.8 °F 11.5 °F -10.3 °F 21% 30.55 in 10.0 mi NE 17.3 mph 24.2 mph N/A   Mostly Cloudy
5:15 PM 24.6 °F 11.3 °F -12.5 °F 19% 30.56 in 10.0 mi NE 17.3 mph 25.3 mph N/A   Mostly Cloudy
5:35 PM 23.9 °F 11.2 °F -12.3 °F 20% 30.56 in 10.0 mi NE 15.0 mph 21.9 mph N/A   Scattered Clouds
5:55 PM 23.9 °F 11.7 °F -12.3 °F 20% 30.57 in 10.0 mi NE 13.8 mph - N/A   Clear
6:15 PM 23.5 °F 11.3 °F -10.8 °F 22% 30.58 in 10.0 mi NE 13.8 mph 17.3 mph N/A   Scattered Clouds
6:35 PM 22.6 °F 10.7 °F -12.5 °F 21% 30.59 in 10.0 mi NE 12.7 mph - N/A   Clear
6:55 PM 22.1 °F 11.3 °F -12.6 °F 21% 30.61 in 10.0 mi NE 10.4 mph - N/A   Clear
7:15 PM 21.7 °F 10.2 °F -13.0 °F 21% 30.62 in 10.0 mi NE 11.5 mph - N/A   Clear
7:35 PM 21.2 °F 9.5 °F -12.3 °F 22% 30.63 in 10.0 mi NE 11.5 mph - N/A   Clear
7:55 PM 21.0 °F 11.4 °F -11.6 °F 23% 30.64 in 10.0 mi NE 8.1 mph - N/A   Clear
8:35 PM 20.1 °F 12.3 °F -10.3 °F 26% 30.66 in 10.0 mi ENE 5.8 mph - N/A   Clear
8:55 PM 19.6 °F - -10.7 °F 26% 30.66 in 10.0 mi Calm Calm - N/A   Scattered Clouds
9:15 PM 19.2 °F - -10.5 °F 26% 30.66 in 10.0 mi Calm Calm - N/A   Clear
9:55 PM 18.7 °F - -9.4 °F 28% 30.67 in 10.0 mi Calm Calm - N/A   Clear
10:15 PM 18.0 °F - -8.5 °F 31% 30.68 in 10.0 mi Calm Calm - N/A   Clear
10:35 PM 17.2 °F - -8.5 °F 32% 30.68 in 10.0 mi Calm Calm - N/A   Clear
10:55 PM 16.7 °F - -8.5 °F 32% 30.68 in 10.0 mi Calm Calm - N/A   Clear
11:15 PM 16.5 °F - -8.5 °F 33% 30.68 in 10.0 mi Calm Calm - N/A   Clear
11:35 PM 16.7 °F - -8.1 °F 33% 30.68 in 10.0 mi Calm Calm - N/A   Clear
11:55 PM 16.3 °F - -7.8 °F 34% 30.68 in 10.0 mi Calm Calm - N/A   Clear